This demonstration page uses our WeatherBlox Daily Observations layout. Learn more.

Left ArrowRight Arrow

39.29038, -76.61219

Hourly Observations for May 19, 2021

Temp ( °F °C ) Dew Point ( °F °C ) Humidity (%) Winds ( mph kmh ) Pressure ( in mb ) Visibility ( mi km ) Precip ( " mm )
12:54 am 00:54 Clear 64 17.8 45 7.2 50 50 SSW 5 7 30.31 1026 10 16 N/A
1:54 am 01:54 Clear 62 16.7 46 7.8 56 56 WSW 5 7 30.31 1026 10 16 N/A
2:54 am 02:54 Clear 60 15.6 47 8.3 62 62 W 3 6 30.30 1026 10 16 N/A
3:54 am 03:54 Clear 59 15 47 8.3 64 64 W 3 6 30.30 1026 10 16 N/A
4:54 am 04:54 Clear 58 14.4 47 8.3 67 67 WSW 5 7 30.30 1026 10 16 N/A
5:54 am 05:54 Sunny 56 13.3 47 8.3 72 72 W 5 7 30.32 1027 10 16 N/A
6:54 am 06:54 Sunny 58 14.4 49 9.4 72 72 N N/A 30.34 1027 10 16 N/A
7:54 am 07:54 Sunny 65 18.3 51 10.6 61 61 W 7 11 30.34 1027 10 16 N/A
8:54 am 08:54 Sunny 72 22.2 54 12.2 53 53 W 7 11 30.35 1028 10 16 N/A
9:54 am 09:54 Sunny 77 25 56 13.3 48 48 WSW 8 13 30.35 1028 10 16 N/A
10:54 am 10:54 Sunny 81 27.2 56 13.3 42 42 SW 8 13 30.35 1028 10 16 N/A
11:54 am 11:54 Mostly Sunny 83 28.3 50 10 32 32 SSW 6 9 30.35 1028 10 16 N/A
12:54 pm 12:54 Mostly Sunny 84 28.9 49 9.4 30 30 N N/A 30.34 1028 10 16 N/A
1:54 pm 13:54 Mostly Sunny 87 30.6 48 8.9 26 26 NW 8 13 30.32 1027 10 16 N/A
2:54 pm 14:54 Mostly Sunny 88 31.1 48 8.9 25 25 VRB 6 9 30.31 1026 10 16 N/A
3:54 pm 15:54 Mostly Sunny 86 30 48 8.9 27 27 N N/A 30.30 1026 10 16 N/A
4:54 pm 16:54 Mostly Sunny 87 30.6 48 8.9 26 26 VRB 6 9 30.29 1026 10 16 N/A
5:54 pm 17:54 Partly Cloudy 87 30.6 49 9.4 27 27 VRB 5 7 30.29 1026 10 16 N/A
6:54 pm 18:54 Partly Cloudy 83 28.3 51 10.6 33 33 W 7 11 30.29 1026 10 16 N/A
7:54 pm 19:54 Mostly Cloudy 79 26.1 51 10.6 38 38 W 5 7 30.29 1026 10 16 N/A
8:54 pm 20:54 Mostly Cloudy 77 25 51 10.6 40 40 S 5 7 30.29 1026 10 16 N/A
9:54 pm 21:54 Partly Cloudy 71 21.7 53 11.7 53 53 SW 5 7 30.30 1026 10 16 N/A
10:54 pm 22:54 Partly Cloudy 70 21.1 52 11.1 53 53 WSW 3 6 30.31 1027 10 16 N/A
11:54 pm 23:54 Partly Cloudy 69 20.6 52 11.1 55 55 W 3 6 30.31 1027 10 16 N/A

Powered by AerisWeather